CST,Max TemperatureF,Mean TemperatureF,Min TemperatureF,Max Dew PointF,MeanDew PointF,Min DewpointF,Max Humidity, Mean Humidity, Min Humidity, Max Sea Level PressureIn, Mean Sea Level PressureIn, Min Sea Level PressureIn, Max VisibilityMiles, Mean VisibilityMiles, Min VisibilityMiles, Max Wind SpeedMPH, Mean Wind SpeedMPH, Max Gust SpeedMPH,PrecipitationIn, CloudCover, Events, WindDirDegrees
2012-12-1,42,36,30,41,35,30,100,95,87,30.12,29.88,29.75,2,1,0,15,9,21,0.00,8,Fog-Rain,157
2012-12-2,42,38,35,41,36,34,100,95,93,29.98,29.92,29.78,3,1,0,13,6,20,0.00,8,Fog-Snow,244
2012-12-3,55,46,37,54,44,36,100,92,81,29.91,29.73,29.56,10,3,0,21,11,32,0.00,6,Fog-Rain,184
2012-12-4,39,29,19,36,21,10,87,67,47,30.30,30.03,29.82,10,10,10,20,13,26,0.00,0,,285
2012-12-5,30,22,14,23,16,10,86,72,64,30.37,30.24,30.03,10,10,7,15,6,23,0.00,2,,142
2012-12-6,39,34,28,37,31,23,93,87,69,30.01,29.84,29.74,10,9,1,16,10,21,0.00,5,Snow,222
2012-12-7,30,26,23,27,22,21,93,84,74,29.98,29.95,29.88,10,9,2,10,6,,0.00,4,Snow,332
2012-12-8,32,26,19,25,21,18,93,82,64,30.07,30.01,29.96,10,9,3,10,2,17,0.00,3,Snow,97
2012-12-9,28,26,24,27,24,19,93,88,74,30.10,29.91,29.73,10,5,1,15,9,20,0.00,8,Snow,72
2012-12-10,28,22,15,25,19,12,100,88,74,29.83,29.78,29.73,10,9,2,10,6,16,0.00,7,Snow,294
2012-12-11,17,16,15,16,13,12,93,86,79,29.97,29.82,29.76,10,7,2,16,8,22,0.00,8,Snow,223
2012-12-12,37,24,12,27,19,10,93,79,60,30.03,29.98,29.91,10,8,3,14,6,22,0.00,6,Snow,165
2012-12-13,35,26,17,23,19,16,93,64,52,30.07,29.98,29.95,10,10,5,14,8,20,0.00,0,,205
2012-12-14,33,26,19,30,25,18,100,90,80,30.13,30.06,29.92,10,5,0,18,7,26,0.00,5,Fog-Snow,93
2012-12-15,37,35,33,36,33,30,93,92,87,29.92,29.65,29.48,7,3,0,20,14,26,0.00,8,Fog-Rain-Snow,104
2012-12-16,35,30,26,34,32,25,100,96,93,29.66,29.56,29.47,10,4,0,12,4,17,0.00,8,Fog-Rain-Snow,287
2012-12-17,26,24,21,25,20,18,93,86,80,29.70,29.67,29.64,10,10,4,12,6,,0.00,8,,309
2012-12-18,30,24,19,23,20,18,93,85,69,29.78,29.67,29.61,10,10,7,9,3,,0.00,5,,97
2012-12-19,30,24,19,27,25,18,100,91,86,29.98,29.91,29.79,10,5,0,8,4,,0.00,7,Fog,233
2012-12-20,30,27,24,28,25,19,93,89,74,29.91,29.68,29.52,10,3,1,24,11,36,0.00,7,Snow,360
2012-12-21,24,15,5,19,12,1,92,82,68,30.13,29.99,29.71,10,9,3,21,13,30,0.00,5,Snow,320
2012-12-22,24,12,1,12,7,-2,92,75,54,30.11,29.99,29.89,10,10,10,10,2,,0.00,0,,247
2012-12-23,21,18,15,18,12,10,93,76,63,30.01,29.97,29.90,10,10,7,14,7,20,0.00,5,Snow,358
2012-12-24,21,14,6,16,10,1,86,80,73,30.14,29.98,29.92,10,10,3,9,3,,0.00,6,Snow,337
2012-12-25,17,9,1,9,3,-2,92,78,63,30.35,30.27,30.13,10,10,10,5,1,,0.00,1,Snow,328
2012-12-26,21,12,3,12,6,0,92,81,63,30.29,30.21,30.15,10,10,7,7,3,,0.00,1,,32
2012-12-27,19,17,15,14,12,10,86,79,68,30.19,30.15,30.09,10,10,4,9,3,,0.00,8,Snow,45
2012-12-28,23,19,15,19,16,12,93,88,79,30.09,29.98,29.89,10,5,1,9,3,,0.00,8,Snow,62
2012-12-29,21,18,14,19,15,10,93,86,79,30.05,29.96,29.88,10,7,1,13,4,,0.00,8,Snow,279
2012-12-30,21,14,6,18,9,3,92,83,73,30.14,30.02,29.83,10,7,1,10,6,,0.00,5,Snow,201
2012-12-31,21,10,-2,18,6,-6,93,75,58,30.11,29.98,29.82,10,9,4,18,9,23,0.00,3,Snow,307